Regional Weather Roundup
Issued by NWS

Home | Current Version | Previous Version | Text Only | Print | Product List | Glossary Off
Versions: 1 2 3 4 5 6 7 8 9 10 11 12 13 14 15 16 17 18 19 20 21 22 23 24 25 26 27 28 29 30 31 32 33 34 35 36 37 38 39 40 41 42 43 44 45 46 47 48 49 50

000
ASUS45 KTFX 211619
RWRMT
MONTANA HOURLY WEATHER ROUNDUP
NATIONAL WEATHER SERVICE GREAT FALLS MT
1019 AM MDT SUN SEP 21 2014

NOTE: "FAIR" INDICATES FEW OR NO CLOUDS BELOW 12000 FEET WITH NO
SIGNIFICANT WEATHER AND/OR OBSTRUCTIONS TO VISIBILITY.

* THESE STATIONS ARE NOT UNDER NWS QUALITY CONTROL. THEY DO NOT
   REPORT WEATHER SUCH AS PRECIPITATION OR FOG.

MTZ001>007-043-211700-
WEST OF THE DIVIDE
CITY           SKY/WX    TMP DP  RH WIND       PRES   REMARKS
KALISPELL      SUNNY     63  45  52 N8        30.14F
MISSOULA       SUNNY     54  41  62 CALM      30.18F
BUTTE          SUNNY     55  39  55 N5        30.29F
MULLAN PASS    SUNNY     57  37  47 SE14G23   30.21F
* ESSEX        N/A       52  40  64 S9G17      N/A
* LINCOLN      N/A       45  38  77 NW2        N/A
* LOOKOUT PASS N/A       56  40  55 SE3        N/A
* POLSON       N/A       58  53  84 S2         N/A
* RONAN APT    SUNNY     59  45  60 N/A        N/A
* SEELEY LAKE  N/A       50  39  66 S1         N/A
* THOMP F APT  SUNNY     64  38  38 NW3G9      N/A
$$

MTZ008-052>055-211700-
SOUTHWEST MONTANA
CITY           SKY/WX    TMP DP  RH WIND       PRES   REMARKS
BOZEMAN        SUNNY     55  43  64 CALM      30.27F
DILLON         SUNNY     54  39  57 SW6       30.28S
W YELLOWSTONE  PTCLDY    48  39  71 CALM      30.36S
* THREE FORKS  SUNNY     55  37  51 N/A        N/A
* BOULDER HILL N/A       54  39  57 S9         N/A
* MONIDA PASS  N/A       53  35  51 N8         N/A
* RAYNOLDS PAS N/A       50  47  89 NW4        N/A
* WHITEHALL    N/A       51  42  71 SW3        N/A
* WISE RIVER   N/A       45  36  71 E2         N/A
$$

MTZ009>010-012-014-046-048-049-054-211700-
EAST SLOPES AND CENTRAL MONTANA
CITY           SKY/WX    TMP DP  RH WIND       PRES   REMARKS
CUT BANK       SUNNY     55  43  64 SE6       30.23F
GREAT FALLS    SUNNY     57  46  67 SE5       30.23S
HELENA         SUNNY     55  43  64 CALM      30.25S
MALMSTROM AFB  SUNNY     55  43  64 N2        30.24F
* CONRAD       SUNNY     55  48  77 N/A        N/A
* EAST GLACIER N/A       59  43  56 N/A        N/A
* MONARCH      N/A       51  36  57 S5         N/A
* PENDROY      N/A       60  48  65 SE5        N/A
* ROGERS PASS  N/A       59  40  50 SE2        N/A
* SAINT MARY   N/A       45  43  93 S1         N/A
* SWEET GRASS  N/A       57  38  49 S14G19     N/A
* WHITE SULPH  N/A       58  44  60 S3         N/A
$$

MTZ011-013-016-021-035-040-045-047-050-051-211700-
NORTH CENTRAL MONTANA
CITY           SKY/WX    TMP DP  RH WIND       PRES   REMARKS
HAVRE          SUNNY     54  43  67 CALM      30.24F
LEWISTOWN      SUNNY     63  43  48 E3        30.27F
* CHINOOK      SUNNY     57  45  64 E9        30.24F
* FORT BENTON  SUNNY     55  43  64 CALM      30.25F
* CHESTER      N/A       60  40  48 SE7G13     N/A
* DENTON       N/A       65  42  43 SE11G16    N/A
* GEYSER       N/A       64  41  43 NE4        N/A
* JUDITH GAP   N/A       58  47  67 S9         N/A
* LOMA         N/A       53  43  69 NE3        N/A
$$

MTZ017>020-022>027-061-062-211700-
NORTHEAST MONTANA
CITY           SKY/WX    TMP DP  RH WIND       PRES   REMARKS
GLASGOW        SUNNY     57  41  55 S5        30.29S
JORDAN         SUNNY     57  43  60 CALM      30.30S
SIDNEY         SUNNY     57  43  60 S5        30.33S
WOLF POINT     SUNNY     55  39  55 CALM      30.31S
* BEAVER HILL  N/A       64  39  40 SW2G7      N/A
* CIRCLE       N/A       62  47  58 N/A        N/A
* LINDSAY DVD  N/A       65  34  32 E2         N/A
$$

MTZ028>042-056>058-211700-
SOUTHCENTRAL AND SOUTHEAST MONTANA
CITY           SKY/WX    TMP DP  RH WIND       PRES   REMARKS
BAKER          SUNNY     63  37  38 CALM      30.34S
BILLINGS       SUNNY     55  43  64 SW6       30.29S
LIVINGSTON     SUNNY     52  41  66 SW5       30.30F
MILES CITY     SUNNY     61  39  44 SE6       30.31S
* LAUREL APT   SUNNY     55  39  55 N/A        N/A
* ROUNDUP APT  SUNNY     57  45  64 N/A        N/A
* ALZADA       N/A       61  39  44 SE3        N/A
* HYSHAM       N/A       66  39  37 S7         N/A
* LAME DEER    N/A       60  38  44 SE9        N/A
* REED POINT   N/A       56  43  62 SW1        N/A
* ROSCOE HILL  N/A       59  35  41 N/A        N/A
$$

REGIONAL REPORTS...DAKOTAS
CITY           SKY/WX    TMP DP  RH WIND       PRES   REMARKS
WILLISTON      SUNNY     55  41  59 VRB3      30.30S
DICKINSON      SUNNY     63  43  48 W7        30.30S
BEACH          N/A       63  37  38 W3        30.33S
CROSBY         SUNNY     59  43  56 CALM      30.29S
TIOGA          SUNNY     57  41  55 W5        30.32S
WATFORD CITY   SUNNY     61  37  41 W5        30.29S
BISMARCK       SUNNY     61  46  58 W5        30.30R
GRAND FORKS    CLOUDY    54  52  93 N9        30.22R
FARGO          CLOUDY    55  52  90 N/A       30.22R
BUFFALO SD     SUNNY     63  37  38 W3        30.28S
RAPID CITY     SUNNY     64  37  37 CALM      30.36S
$$

REGIONAL REPORTS...WYOMING/IDAHO/WASHINGTON
CITY           SKY/WX    TMP DP  RH WIND       PRES   REMARKS
GILLETTE       SUNNY     63  41  45 S9        30.35S
SHERIDAN       SUNNY     55  43  64 CALM      30.31F
CODY           SUNNY    N/A N/A N/A N/A        N/A
YELLOWSTONE LA SUNNY     54  39  57 CALM      30.43S
SALMON         PTCLDY    57  39  51 CALM      30.18F
MULLAN PASS    SUNNY     57  37  47 SE14G23   30.21S
SAND POINT     SUNNY     63  46  54 NE10      30.06F
SPOKANE        SUNNY     64  45  50 NE10      30.02S
$$

REGIONAL REPORTS...ALBERTA
CITY           SKY/WX    TMP DP  RH WIND       PRES   REMARKS
CALGARY        SUNNY     57  43  60 S8        30.13F
LETHBRIDGE     N/A       59  46  62 S6        30.17F
MEDICINE HAT   N/A       66  45  47 S9        30.19F
EDMONTON       SUNNY     63  46  54 S10       30.05F
WATERTON GATE  N/A       59  43  56 SW5        N/A
CARDSTON       N/A       57  48  72 E1         N/A
MILK RIVER     N/A       63  41  45 S10        N/A
$$

REGIONAL REPORTS...SASKATCHEWAN
CITY           SKY/WX    TMP DP  RH WIND       PRES   REMARKS
SWIFT CURRENT  SUNNY     64  39  40 SW17G23   30.23F
REGINA         N/A       59  45  60 SW3       30.25S
VAL MARIE      N/A       57  43  60 S2         N/A
ASSINIBOIA     N/A       63  39  41 SW7        N/A
CORONACH       N/A       57  45  64 E5         N/A

$$




USA.gov is the U.S. government's official web portal to all federal, state and local government web resources and services.